ECMWFFLT2_925_spd_021.txt.gz
Wind_Speed
19 19 19 20 20 19 19 19 17 15 14 13 14 13 13 12 11 10 10 10 9 9 9 8 8 8 8 8 8 8 7 8 8 7 7 6 7 7 7 7 6 6 5 6 6 6 8 8 8 7 5 8 13 11 9 7 5 4 3 3 4 4
18 19 19 19 19 19 18 17 16 15 14 13 13 13 13 12 11 10 10 10 9 9 9 8 8 8 8 7 7 7 7 7 7 7 7 6 5 6 6 6 5 5 5 5 5 5 7 7 7 6 5 8 12 12 9 7 5 4 3 3 3 4
16 18 17 17 17 17 17 16 14 14 14 13 13 12 13 12 11 11 10 10 9 9 9 8 8 8 8 7 7 7 7 6 7 7 6 6 5 5 6 5 5 5 5 5 5 5 6 6 6 6 6 8 12 13 10 7 5 4 3 3 3 3
13 15 15 15 16 16 15 14 13 13 13 14 13 12 12 11 11 10 9 9 9 9 9 9 9 9 8 8 8 7 7 6 6 6 6 6 5 5 5 5 5 5 5 6 5 5 5 5 6 7 7 10 12 12 10 7 5 4 3 2 2 3
13 13 13 13 14 15 15 14 13 12 12 13 12 12 11 10 10 9 9 8 9 9 9 9 10 10 9 8 8 7 6 6 6 6 6 6 5 4 4 4 4 4 5 6 6 6 5 5 6 7 7 10 12 11 9 7 6 4 3 2 2 3
13 12 12 12 13 14 14 14 13 13 13 12 12 12 10 9 9 9 8 8 8 9 9 9 10 10 9 8 8 7 6 6 6 5 5 5 5 5 4 4 3 3 3 5 6 6 5 5 6 7 7 9 11 11 10 8 6 5 3 2 1 2
12 12 12 12 12 12 13 13 13 12 13 12 11 10 9 9 8 8 8 7 8 9 9 9 9 9 9 8 8 7 7 6 6 5 5 4 5 4 4 3 3 3 4 5 6 6 6 5 6 7 8 8 9 10 10 8 7 5 3 2 1 2
13 13 13 13 13 12 12 12 12 12 12 11 10 9 9 9 9 8 8 8 8 8 9 9 9 9 8 8 7 6 6 6 6 5 4 3 4 4 3 3 3 3 4 5 6 6 6 5 6 7 7 7 8 9 9 8 7 5 3 2 1 1
14 14 15 15 14 13 12 12 12 12 12 10 9 8 9 10 10 9 9 8 8 9 10 9 9 8 8 7 6 6 5 5 5 4 4 3 4 4 3 4 4 4 5 6 6 7 7 7 6 6 6 6 7 8 8 8 7 5 4 2 2 1
14 15 17 15 13 13 12 11 12 11 10 10 8 9 10 11 11 10 9 9 9 10 10 9 9 8 8 7 5 5 6 6 5 5 5 4 5 5 4 5 5 6 7 7 6 7 7 8 8 6 5 6 6 8 8 7 6 5 4 2 2 1
14 14 15 14 12 13 11 11 13 11 9 10 9 10 11 11 11 11 10 11 10 11 10 9 8 7 7 5 4 5 7 7 6 6 6 6 6 6 6 6 7 8 9 8 7 7 7 8 9 7 5 6 6 6 6 7 7 6 5 3 2 2
13 13 14 13 12 11 10 10 11 9 8 10 9 9 12 12 12 11 12 12 12 12 12 10 9 8 6 4 5 7 7 7 6 6 6 6 6 5 6 6 7 9 8 8 7 6 6 6 7 7 5 6 6 5 5 7 8 7 5 4 3 2
13 14 14 12 10 9 9 8 8 7 8 9 9 8 11 13 13 12 13 14 15 15 14 11 11 11 7 6 9 10 7 7 6 6 6 5 4 4 4 4 5 6 6 7 6 6 5 5 6 6 5 5 5 5 5 7 8 8 6 4 3 3
14 14 13 11 10 9 8 8 7 7 7 8 9 9 10 13 14 12 12 15 16 15 12 12 13 10 7 9 12 10 8 9 8 6 6 5 4 5 5 4 4 4 4 5 5 6 6 5 6 6 6 5 5 6 7 8 9 8 6 4 3 3
15 14 12 11 10 9 8 8 7 6 6 6 7 6 8 12 13 11 10 12 13 13 10 11 13 8 6 10 10 7 7 10 9 6 5 4 4 6 6 6 6 5 5 4 4 5 5 5 6 6 6 6 5 6 8 9 9 8 7 6 5 4
15 14 12 11 11 10 9 9 8 7 6 5 4 4 6 10 10 9 8 7 8 8 8 9 9 5 6 9 7 6 6 7 8 6 4 3 4 6 6 7 7 6 5 5 4 4 3 3 5 6 7 7 7 7 9 9 9 8 9 8 7 6
14 14 14 13 13 11 10 10 8 7 6 5 6 6 6 6 5 5 5 4 4 4 4 5 4 3 6 6 4 5 5 6 6 4 3 3 4 4 5 6 7 7 6 5 5 5 4 3 5 7 8 8 8 8 8 7 8 9 8 7 7 7
14 15 16 16 15 13 11 10 8 7 6 5 6 5 4 3 2 2 3 3 4 4 2 2 1 2 5 5 4 4 5 6 5 4 4 3 4 5 5 5 6 7 6 6 7 7 6 6 6 8 8 9 8 7 6 5 6 6 4 3 5 5
14 15 17 16 15 14 12 11 10 7 5 5 4 3 1 1 0 1 2 3 3 3 2 1 1 1 4 5 5 4 5 6 6 5 5 5 6 6 5 5 6 7 7 7 7 7 7 8 8 7 6 8 8 7 5 4 5 6 5 5 5 5
15 17 16 16 16 15 12 10 10 8 7 6 4 3 3 2 2 1 0 1 1 2 2 2 2 0 3 3 4 4 5 5 6 5 4 5 6 5 5 6 6 6 7 7 7 7 8 9 8 6 3 4 6 6 4 4 5 6 6 5 5 5
16 17 17 18 17 15 13 11 9 9 9 8 6 6 6 5 4 4 3 3 2 2 2 3 3 2 3 2 1 3 4 5 6 5 5 5 4 4 4 6 6 6 6 8 8 8 10 11 9 7 4 3 3 3 2 2 2 3 2 1 1 2
16 18 17 18 16 13 13 12 11 11 11 10 8 8 8 7 6 6 7 6 5 5 4 4 5 4 4 3 1 2 3 4 5 6 6 4 3 3 5 6 6 6 6 8 9 11 15 13 8 6 6 5 4 2 2 3 2 1 1 2 4 4
18 18 17 16 15 13 14 13 12 12 12 11 11 10 9 8 8 8 8 8 7 6 6 6 7 6 4 3 2 2 2 3 4 5 5 3 2 3 4 5 6 7 8 9 9 13 18 14 9 8 6 4 3 1 1 2 3 3 3 4 5 6
20 18 17 16 15 15 15 13 11 11 12 11 12 12 10 9 9 9 8 7 6 6 6 6 7 6 5 3 1 1 1 2 3 4 3 2 2 2 3 3 5 6 9 11 10 11 14 12 12 10 5 3 2 2 1 2 3 4 4 4 6 6
20 19 17 17 16 16 16 15 13 13 13 12 13 12 11 10 9 8 7 6 5 5 6 6 6 6 5 3 2 1 1 1 2 2 2 2 2 2 2 3 4 6 8 10 10 10 9 10 13 12 6 3 3 2 2 4 4 4 5 5 5 6
20 19 18 18 17 17 17 17 16 15 14 13 13 11 11 11 10 7 6 5 5 6 6 6 6 5 5 4 3 2 1 1 1 1 1 2 2 2 2 2 3 4 6 8 9 9 8 10 12 11 8 5 3 3 4 6 5 4 6 7 7 8
20 20 19 19 19 19 19 18 16 14 13 13 12 12 11 11 10 8 6 6 7 7 7 6 6 5 4 5 4 3 3 2 2 1 1 2 2 2 2 3 2 4 6 7 8 8 8 9 9 7 6 5 4 5 7 6 4 5 6 7 9 11
20 20 20 21 20 20 20 17 14 12 10 10 10 11 11 11 10 9 8 8 8 8 8 7 6 4 4 5 5 4 3 2 3 3 3 3 4 4 3 3 3 3 5 6 7 7 7 9 8 7 6 5 6 6 7 6 5 5 6 6 7 10
19 20 21 21 20 20 19 16 14 13 11 9 8 9 10 9 10 10 10 10 10 9 9 7 5 4 4 5 5 5 4 2 3 4 5 5 5 6 4 3 3 4 5 5 6 6 6 8 8 9 9 8 8 8 6 5 5 5 6 7 6 8
18 20 20 20 20 20 18 16 15 13 11 11 10 9 9 9 9 10 10 11 10 10 9 7 5 4 4 4 4 4 4 2 3 5 7 8 7 6 4 4 4 5 6 5 5 5 6 8 8 9 10 9 8 8 6 6 6 6 6 6 6 8
18 18 19 19 19 18 15 14 13 11 10 11 10 10 10 10 10 10 10 10 10 9 9 7 5 5 4 4 3 3 3 3 5 6 8 9 8 7 7 7 7 7 7 7 7 7 8 8 8 8 9 8 7 7 7 7 7 8 7 7 7 8
16 17 18 18 16 14 13 12 12 10 9 9 9 9 10 10 10 10 9 9 9 8 8 7 6 6 5 4 3 2 2 3 5 6 7 7 7 7 8 10 10 10 10 10 11 11 11 11 10 11 10 9 9 8 7 8 8 7 7 9 9 8
15 14 13 11 10 9 8 9 10 9 9 8 8 8 8 8 9 9 8 8 7 7 7 7 7 6 5 4 3 2 2 3 4 5 5 6 6 7 9 10 12 12 13 14 14 15 15 15 15 14 14 13 13 11 10 9 8 8 8 9 9 9
11 9 10 10 9 9 8 8 8 9 9 8 7 8 8 7 6 7 7 7 6 6 7 8 8 7 5 4 3 3 3 4 4 4 4 4 5 7 9 9 10 12 13 14 15 15 16 16 15 14 14 13 12 11 11 10 9 9 9 9 10 11
14 15 12 10 11 12 12 11 10 10 8 5 6 7 7 5 3 5 7 7 6 5 7 8 8 7 5 5 4 5 5 4 4 4 3 4 5 7 7 8 9 10 12 13 13 14 14 14 13 12 11 12 12 12 12 11 10 9 8 8 9 12
22 14 10 12 16 16 16 16 14 12 10 8 7 5 3 3 5 7 8 7 6 6 8 9 8 6 5 5 6 6 5 4 4 3 2 3 4 6 6 6 8 9 11 12 12 12 13 13 13 12 13 14 15 15 14 13 13 13 12 11 10 10
18 10 17 19 19 16 15 19 17 14 15 13 8 6 7 8 8 8 7 6 7 7 9 9 8 7 5 5 6 6 6 5 5 5 4 3 3 4 5 5 7 9 10 10 10 11 12 13 14 14 15 16 17 17 16 15 15 15 15 15 13 9

ECMWFFLT2_925_spd_024.txt.gz
Wind_Speed
16 16 16 16 17 16 17 17 17 16 15 15 15 14 14 13 13 12 11 12 11 10 10 10 10 10 10 10 10 10 9 9 9 9 9 9 8 8 7 7 6 6 6 6 6 7 9 9 7 5 4 8 10 7 5 5 4 4 4 5 6 3
14 15 16 17 16 15 15 16 16 16 14 15 15 15 14 12 12 11 11 11 10 9 9 9 9 9 9 9 10 10 9 9 9 8 8 8 7 7 7 6 6 6 6 6 7 5 7 8 8 7 5 9 10 7 6 5 4 3 3 5 4 2
13 15 14 13 14 15 15 16 15 15 15 15 15 14 13 12 11 10 10 9 8 8 8 8 8 9 9 9 9 9 9 9 9 8 7 7 7 7 7 6 6 6 6 6 5 4 6 6 7 7 6 9 10 7 7 6 4 3 3 5 3 2
12 13 13 12 13 14 16 16 15 15 15 15 14 14 12 11 10 9 9 8 8 8 8 8 8 9 9 8 8 8 8 8 9 8 7 7 7 7 7 7 7 6 5 4 3 4 5 5 6 7 6 8 9 7 8 6 4 3 4 5 2 2
12 13 15 14 12 12 14 13 13 14 13 13 13 12 11 10 9 9 8 7 8 8 8 8 8 8 7 7 7 7 6 7 7 8 7 6 6 7 7 8 7 6 5 4 4 4 4 4 5 5 6 7 8 8 7 5 4 3 5 5 2 3
12 13 14 13 12 12 13 11 11 11 11 11 11 10 10 9 9 9 8 7 8 8 7 7 8 7 6 6 7 6 6 6 7 7 7 6 7 7 7 7 6 6 5 5 5 4 4 4 4 4 5 6 8 8 6 5 5 3 5 5 3 4
14 13 12 12 13 14 15 14 12 9 8 10 10 9 9 8 8 8 7 7 8 8 7 8 8 8 7 7 7 7 7 7 7 7 7 7 7 7 7 7 6 6 6 6 6 6 6 5 5 5 5 6 7 7 5 4 4 4 5 5 4 5
15 14 13 12 14 14 14 14 13 9 7 9 10 9 8 8 8 7 7 7 7 8 8 9 10 9 7 7 7 7 7 7 7 7 7 7 7 8 7 8 8 8 8 7 7 6 6 6 6 6 6 7 7 6 6 5 4 4 4 5 5 5
14 14 14 12 12 12 11 14 15 13 9 9 10 9 7 7 7 7 7 7 6 7 8 9 9 8 7 7 6 6 5 6 7 7 7 7 7 7 7 8 9 9 8 7 7 6 7 7 7 6 6 7 7 7 6 6 5 5 4 5 5 4
13 12 12 12 12 11 11 13 14 13 11 10 10 9 7 6 6 6 5 6 6 6 7 7 5 5 6 6 5 5 4 5 6 7 7 7 6 7 7 8 8 8 8 7 6 6 7 7 7 7 7 7 7 7 7 6 5 5 4 5 5 4
12 11 11 11 12 12 11 11 11 11 11 9 8 7 6 6 5 4 3 4 6 7 6 4 4 5 7 7 5 5 6 7 7 6 6 5 5 7 6 6 8 8 8 7 7 6 6 7 7 7 7 7 7 7 7 6 6 5 5 5 6 5
12 12 11 10 11 12 11 11 10 10 8 7 6 5 5 5 3 3 4 4 6 7 4 2 6 8 8 7 6 7 8 9 9 8 7 5 6 7 7 6 8 8 7 7 7 6 6 6 6 6 6 7 7 7 6 6 6 6 6 5 6 6
13 13 12 10 10 10 10 10 9 8 6 6 5 3 3 4 3 3 6 6 6 4 1 3 9 11 9 7 7 7 7 9 9 8 7 7 7 8 7 7 8 8 7 7 6 6 6 5 5 5 5 7 7 6 5 6 6 6 6 6 5 6
14 14 14 12 9 8 8 7 7 6 5 5 4 3 3 4 2 2 6 7 6 3 3 9 12 12 11 9 8 7 7 8 8 6 5 7 8 9 8 7 7 8 7 6 6 7 6 5 4 4 4 4 5 4 4 5 6 6 5 5 5 5
15 15 15 12 9 7 6 5 5 5 5 4 3 4 3 3 2 1 2 4 3 2 5 10 9 7 7 7 7 6 6 7 6 5 4 5 8 8 8 7 6 7 7 6 6 6 6 6 5 4 3 3 3 3 4 4 5 5 4 4 4 4
15 15 14 11 9 7 5 4 4 5 5 4 3 3 2 1 2 1 2 1 1 1 2 5 4 4 5 5 5 5 4 5 5 4 2 2 5 5 6 6 5 5 6 6 5 6 5 6 5 4 3 2 2 2 3 3 4 4 3 2 2 3
15 15 12 11 8 6 5 4 4 4 4 4 3 2 2 1 2 2 2 3 3 1 3 2 2 3 3 4 4 3 3 4 4 3 2 2 2 3 4 5 5 4 5 5 6 6 5 5 5 4 3 2 1 2 1 1 2 2 1 1 2 3
14 14 11 10 8 6 5 4 4 4 4 4 3 2 2 2 2 2 2 2 3 2 2 2 2 2 3 3 3 4 4 3 3 3 2 2 2 2 3 4 5 5 5 5 6 6 6 6 6 5 4 3 3 3 1 1 1 0 2 1 2 2
12 13 11 10 9 7 6 5 5 4 3 3 3 2 2 2 2 2 2 2 2 2 2 2 2 3 3 3 3 5 5 4 3 3 2 2 2 2 3 3 4 5 5 6 5 5 6 6 6 6 5 4 3 2 0 1 0 1 1 1 4 4
11 12 11 10 9 7 7 6 5 5 5 4 3 3 3 3 2 2 3 3 3 2 1 1 1 2 3 4 4 4 4 4 3 2 3 3 3 3 3 4 4 5 5 6 5 5 7 7 7 6 6 4 3 2 1 1 1 1 1 1 3 2
12 12 11 11 10 8 8 8 7 7 6 6 5 5 5 4 4 4 4 3 3 3 2 1 1 2 3 3 3 2 2 3 3 3 3 4 3 3 4 4 4 5 6 6 6 6 7 8 8 7 6 6 4 3 2 2 2 2 2 2 1 1
13 12 12 11 11 10 9 8 7 7 7 7 6 6 6 6 6 5 5 4 3 4 3 3 3 3 4 3 2 2 2 2 2 3 3 3 4 4 4 5 5 6 7 7 6 6 8 8 8 8 7 7 6 5 4 4 3 3 3 3 2 2
12 13 12 12 12 11 9 8 7 8 8 7 7 6 7 7 6 6 6 4 4 4 4 4 4 4 4 3 2 2 2 2 2 3 3 4 4 4 5 6 6 6 7 7 6 6 9 9 7 7 7 5 5 5 5 5 5 4 3 4 3 3
13 14 13 13 12 11 10 9 8 10 9 8 8 8 8 8 7 6 6 4 3 4 4 4 4 4 3 3 2 2 2 2 3 4 4 4 5 5 5 6 6 7 7 7 6 7 8 7 5 5 5 3 4 4 3 5 7 5 4 5 5 4
15 15 14 14 13 12 12 11 10 11 10 9 9 8 8 7 7 6 5 4 3 3 3 3 3 3 3 3 2 1 1 1 2 3 3 4 4 5 5 6 6 7 8 7 6 7 8 7 6 6 4 2 3 3 2 7 8 5 5 5 5 5
16 16 15 16 15 14 14 13 13 12 11 10 9 7 7 7 7 6 5 5 4 3 3 3 3 3 3 3 3 2 1 1 1 2 3 3 4 5 6 6 7 7 8 8 7 7 7 7 6 7 6 3 2 2 2 8 7 4 6 7 6 6
17 16 15 16 16 14 13 13 13 11 10 9 9 8 7 7 7 6 6 5 5 4 3 4 3 3 3 4 4 4 3 2 1 1 2 3 4 5 6 6 6 7 7 7 8 8 7 6 6 7 7 5 3 3 3 6 5 4 6 6 6 7
17 16 16 16 16 14 13 13 12 10 9 9 9 9 8 8 7 7 7 7 6 5 4 4 3 3 3 4 4 3 3 3 2 2 2 2 3 3 4 5 6 6 6 7 9 9 8 7 6 6 6 6 5 4 5 6 5 5 6 5 6 7
15 15 16 16 16 14 12 13 11 10 10 9 9 9 9 8 8 8 8 7 6 6 4 3 3 3 3 3 3 3 2 3 3 2 3 2 3 3 4 4 5 6 6 6 7 8 8 8 6 6 7 7 6 6 6 5 5 5 6 6 6 7
14 14 15 15 14 14 13 12 10 10 11 11 11 10 9 9 8 9 9 8 7 6 5 3 3 3 3 3 3 3 2 3 4 4 4 4 4 4 3 4 4 5 6 7 6 6 7 7 6 7 7 7 7 7 7 7 7 7 7 7 6 8
13 13 15 15 14 14 14 11 10 10 11 12 12 11 10 9 9 9 10 9 7 5 5 4 3 4 4 3 4 3 3 4 5 5 4 4 4 3 3 3 4 5 5 6 6 6 7 7 6 7 6 6 6 6 6 7 8 8 7 6 6 7
13 15 16 16 16 16 14 11 10 11 11 12 12 11 11 10 10 10 10 9 7 6 5 4 4 5 4 4 4 3 3 5 6 5 4 4 4 4 3 3 3 4 4 5 6 6 7 8 7 7 6 5 5 5 5 5 7 7 6 6 7 6
9 13 16 17 15 14 12 10 10 10 10 11 11 10 11 11 10 10 9 9 8 7 5 5 5 5 5 4 4 4 4 5 6 5 5 5 5 5 4 4 4 5 5 5 5 6 7 8 7 7 7 6 5 5 4 4 5 5 5 7 7 6
9 2 6 11 11 11 10 9 9 9 9 9 9 10 10 10 10 10 9 9 8 7 6 6 6 6 5 4 5 6 5 6 6 6 6 6 6 5 4 5 5 6 6 6 6 7 8 8 7 6 6 5 6 5 5 5 5 5 6 6 7 6
4 6 3 7 12 12 11 11 11 11 10 9 9 9 9 10 10 9 9 8 8 8 7 7 7 6 5 6 7 8 7 7 7 6 6 6 6 6 5 5 6 6 7 7 7 8 8 8 7 6 5 5 6 6 6 5 5 5 5 5 6 6
10 10 7 9 13 14 15 15 14 13 11 9 9 9 9 10 10 9 9 8 8 8 8 9 8 7 6 7 8 9 8 8 7 7 7 6 6 6 5 6 6 6 6 6 6 6 6 7 6 6 6 6 7 7 7 6 5 5 4 4 6 6
12 16 18 19 18 17 16 14 15 15 13 12 11 11 10 10 10 10 9 8 9 9 9 10 9 8 8 8 9 9 9 9 8 8 7 6 6 6 5 6 6 6 6 5 6 6 5 6 6 7 7 7 8 8 8 7 7 7 6 5 6 6

ECMWFFLT2_925_spd_030.txt.gz
Wind_Speed
22 21 19 18 19 19 18 17 16 15 15 14 13 13 13 13 13 13 12 12 11 11 9 8 6 6 6 6 6 5 5 5 4 3 2 2 2 1 1 1 1 1 2 4 7 8 7 6 5 6 11 12 8 8 10 8 10 10 10 10 8 10
22 21 20 18 19 20 20 19 17 16 15 14 14 14 14 15 14 13 13 12 12 11 9 8 6 5 5 5 5 5 5 4 4 3 2 1 0 1 2 3 3 2 0 2 6 7 6 6 6 6 11 12 8 8 8 6 8 11 11 10 8 10
21 21 21 19 20 22 21 20 18 17 16 15 16 15 15 16 15 15 15 14 12 10 10 10 8 6 5 5 5 5 5 5 4 3 1 1 2 3 3 3 3 2 1 3 6 6 5 4 5 7 10 12 8 6 5 5 6 7 8 7 8 9
22 22 21 20 23 23 22 21 18 17 17 17 16 15 15 17 17 16 15 14 13 10 11 11 9 8 7 5 5 6 5 5 4 3 2 1 2 3 3 2 1 1 3 5 6 6 7 6 5 7 10 12 8 6 7 8 8 9 9 7 8 8
24 23 21 22 24 23 22 20 18 19 18 18 17 15 15 16 16 16 14 14 14 13 13 12 10 10 9 7 5 5 5 5 5 5 4 3 4 4 3 3 2 3 3 4 6 7 10 10 7 7 9 11 8 8 9 9 10 10 10 8 7 7
24 23 23 22 21 22 22 18 18 20 18 17 16 15 14 14 14 14 14 13 14 14 13 13 13 12 10 10 9 7 6 7 8 7 8 7 7 5 4 5 4 6 7 8 10 9 9 9 9 8 8 10 10 10 10 9 11 10 8 7 7 8
23 23 22 20 18 20 19 17 19 18 16 15 14 13 14 14 14 13 13 13 13 14 15 16 16 14 11 11 12 11 9 9 9 9 8 7 8 7 5 6 7 8 8 9 8 6 7 7 8 10 10 11 11 12 9 10 12 10 8 7 8 10
22 21 21 20 19 19 17 15 17 14 13 14 13 14 14 12 14 14 13 13 13 13 16 16 15 14 12 12 12 11 10 9 8 7 7 5 6 8 7 7 8 9 8 7 7 6 6 7 7 8 10 12 12 12 11 12 12 10 9 9 10 12
21 19 22 22 19 18 16 14 13 11 12 13 13 15 14 12 14 15 13 14 13 11 13 13 11 10 10 11 9 8 9 9 6 4 5 4 3 7 9 8 9 10 7 6 7 6 6 7 7 7 8 11 11 10 11 13 14 11 9 10 12 12
19 19 22 21 17 17 17 15 14 15 13 13 14 14 13 13 13 13 12 13 13 11 12 12 11 8 7 7 6 6 6 7 6 3 5 6 3 5 9 9 9 9 7 6 6 4 4 5 7 8 6 8 11 7 10 12 13 14 11 10 11 13
20 21 20 17 16 17 16 14 15 15 13 13 13 13 13 12 12 11 11 12 12 11 11 13 12 9 7 6 6 6 5 4 5 4 6 6 4 5 7 8 8 8 7 6 6 4 3 5 5 8 7 6 11 8 11 14 15 14 10 8 10 13
20 20 17 16 16 15 14 13 15 14 12 13 12 13 12 11 11 11 11 12 10 9 10 11 11 10 9 7 6 7 6 5 5 6 7 6 5 5 7 7 7 8 8 6 6 5 2 5 5 7 8 7 9 9 8 13 15 12 11 9 10 12
19 17 15 16 15 15 14 13 14 14 13 14 13 12 11 10 10 10 9 9 8 8 9 9 10 11 10 8 8 8 8 9 8 7 7 6 6 6 7 7 7 8 8 6 7 5 2 5 8 7 6 6 7 6 8 13 13 14 16 15 12 12
19 17 16 17 16 15 13 11 12 14 15 15 13 12 11 10 9 7 7 7 6 7 8 8 10 10 9 9 12 12 10 11 10 8 8 7 6 7 7 7 7 8 7 6 6 4 3 4 6 8 8 3 4 6 11 15 13 13 17 17 14 13
20 19 18 18 17 14 11 10 12 13 13 12 11 11 10 9 8 7 7 7 7 7 8 9 9 9 8 10 13 13 12 12 10 9 9 8 7 7 8 8 9 9 7 6 6 5 3 2 2 6 13 10 10 9 14 17 14 13 15 16 16 14
22 22 19 17 17 16 13 12 12 11 10 9 8 7 6 7 7 6 6 5 6 6 7 8 8 8 9 11 12 11 11 12 10 9 9 8 8 9 10 10 10 9 7 5 5 5 2 1 3 8 10 8 11 10 13 17 15 13 12 13 15 13
24 23 21 20 21 21 17 15 14 11 8 7 6 5 5 6 4 4 5 4 6 7 7 8 9 9 10 12 13 11 10 12 11 9 9 8 8 9 10 10 10 8 6 5 4 4 0 1 3 7 4 2 7 8 11 15 15 14 12 12 13 11
23 22 21 21 22 21 19 16 15 11 7 6 5 6 6 5 4 3 4 5 6 7 7 8 9 8 10 13 13 10 10 12 12 10 10 9 7 8 9 10 10 8 7 5 3 3 2 3 4 4 1 3 4 7 10 13 12 13 13 12 11 9
22 23 20 20 20 18 17 15 14 12 9 8 6 6 5 3 3 3 4 5 7 8 8 9 9 9 10 12 10 9 10 11 12 12 11 10 10 10 9 9 8 7 6 2 2 2 1 5 7 5 3 6 5 6 8 11 10 10 12 10 8 8
19 23 21 20 20 18 16 15 15 14 10 8 5 4 3 4 4 5 5 6 7 7 8 9 9 10 10 10 9 10 11 11 11 12 11 11 12 10 9 8 7 6 4 2 1 1 2 6 10 9 6 7 5 5 6 9 10 9 9 9 6 7
17 21 21 20 19 18 18 16 14 11 9 8 8 7 7 6 6 5 5 6 6 6 7 7 8 9 9 10 10 11 11 11 11 11 10 10 10 9 8 7 6 5 3 3 3 3 3 7 10 9 6 5 1 6 6 7 8 7 9 10 8 8
18 20 20 19 17 16 15 13 12 10 11 11 10 10 8 6 6 5 5 6 6 6 6 6 6 8 8 9 9 10 11 12 11 10 10 9 8 8 6 5 5 4 2 2 3 4 5 7 9 9 7 2 4 5 7 6 6 6 7 8 9 11
19 18 17 18 17 14 10 8 11 12 13 12 10 11 9 6 6 6 5 5 5 6 6 6 7 8 7 8 10 9 10 11 11 11 10 9 8 8 7 6 5 4 3 3 3 5 7 7 8 10 8 3 2 2 4 5 5 6 6 6 7 10
19 17 18 19 16 12 10 8 8 12 14 12 12 13 10 8 8 8 7 6 6 5 5 5 6 7 7 7 9 8 9 9 9 9 9 9 8 7 7 8 7 6 5 5 4 5 7 7 8 9 6 3 1 1 1 2 5 6 6 6 9 10
17 17 19 18 13 12 15 11 7 12 15 12 12 11 10 10 9 8 8 7 6 6 5 5 5 6 7 7 7 7 8 9 8 8 9 8 8 7 7 8 8 7 7 6 5 5 6 8 8 8 5 4 2 0 1 3 5 5 5 7 11 10
14 17 19 17 15 15 19 14 6 10 14 11 11 10 9 10 9 9 9 8 7 6 6 6 5 6 7 6 6 6 7 8 7 7 7 7 8 8 8 8 9 9 7 6 6 5 5 7 8 7 6 5 2 1 5 5 3 2 4 8 9 8
15 19 22 20 18 18 21 15 4 6 11 10 10 11 9 9 8 8 9 8 7 7 6 6 6 6 6 5 6 5 5 7 7 6 6 6 6 7 7 7 9 9 7 7 9 8 6 5 6 6 6 4 3 5 9 7 3 3 4 5 10 13
20 24 24 22 21 19 20 14 1 6 9 11 9 11 9 8 8 8 8 7 7 7 6 6 6 6 6 6 5 5 3 4 4 5 7 7 5 5 4 6 7 7 6 6 8 8 8 7 7 6 6 6 6 7 8 6 5 6 5 4 7 13
24 25 25 22 21 19 18 15 2 15 7 11 10 10 10 8 9 8 7 7 7 7 6 6 6 5 6 6 5 5 4 3 4 4 7 6 5 4 4 5 6 6 5 6 7 8 10 10 8 8 8 6 5 6 6 5 7 7 6 5 4 5
27 25 25 23 22 22 20 18 9 12 6 12 11 10 10 9 9 8 6 6 6 6 5 5 6 5 6 6 5 6 7 6 6 7 8 7 6 5 5 5 5 5 6 8 8 9 10 8 7 9 8 6 6 6 5 5 4 5 6 5 6 6
32 30 28 25 24 24 21 18 16 8 7 11 10 10 11 9 9 8 7 6 6 6 6 6 5 5 6 6 7 8 8 8 7 7 7 6 6 6 6 6 7 6 7 7 8 10 12 10 9 8 6 8 8 7 6 5 6 7 5 4 6 6
32 32 30 29 27 25 22 19 18 11 8 10 10 10 10 9 9 8 7 7 6 6 6 6 6 5 6 6 8 9 8 9 8 8 7 6 7 8 8 8 8 8 9 8 8 10 13 13 12 10 9 11 9 6 8 10 11 11 9 8 8 8
30 30 29 30 30 30 27 24 20 16 12 11 10 9 9 9 9 8 7 7 6 7 7 7 7 6 6 6 8 10 10 9 8 7 7 7 8 9 9 11 11 11 11 11 10 11 14 14 12 11 12 12 12 11 9 11 13 12 12 12 10 10
28 28 28 30 31 32 31 27 24 21 18 15 12 10 9 8 8 7 6 6 6 7 7 7 8 6 6 7 8 10 11 9 8 8 7 9 10 10 11 12 13 13 14 14 14 14 15 14 12 12 12 11 15 17 15 14 14 14 14 13 11 11
28 28 29 30 29 29 29 26 24 22 20 17 15 13 11 9 8 7 6 5 5 7 8 8 8 7 6 7 8 10 10 8 9 9 8 9 10 10 12 13 13 14 15 16 16 15 15 14 13 11 11 11 12 14 16 18 17 15 16 13 8 16
29 29 30 29 27 27 26 23 21 22 21 18 17 15 13 11 8 7 6 5 5 7 9 9 8 7 7 8 8 9 10 9 9 9 8 8 9 11 12 12 12 13 14 15 15 15 15 14 13 12 12 13 12 12 13 15 12 10 11 9 9 16
29 29 30 28 26 25 23 19 19 21 20 19 17 16 15 13 9 8 7 6 7 8 9 9 8 8 8 9 9 9 10 10 10 9 9 9 9 10 12 11 12 13 13 15 15 15 15 14 13 13 13 14 13 13 13 13 12 12 12 11 11 9

ECMWFFLT2_925_spd_033.txt.gz
Wind_Speed
21 20 20 20 20 20 19 18 18 17 16 16 16 16 15 15 15 14 14 14 15 16 15 13 12 12 10 8 7 6 5 5 4 4 4 5 5 4 3 2 2 2 2 4 6 7 6 5 6 8 9 8 10 11 10 15 14 12 12 11 11 11
22 21 21 21 21 20 18 18 18 17 16 16 16 16 15 15 15 15 14 15 15 15 14 13 13 11 9 7 6 5 5 5 4 4 4 4 4 4 3 3 3 2 2 3 6 8 6 6 6 8 9 9 9 10 9 14 12 10 10 10 11 10
22 21 21 22 22 21 19 18 19 18 17 17 17 16 16 17 16 15 15 15 15 14 14 13 12 10 8 7 6 5 5 4 4 4 3 3 3 4 3 3 3 3 3 3 5 7 6 6 6 8 9 9 8 9 9 12 9 9 9 10 10 10
22 21 21 22 22 21 20 19 19 19 19 19 18 16 16 17 15 14 15 15 15 14 13 13 12 10 8 7 6 5 4 4 3 3 2 2 2 3 4 4 4 5 4 5 7 7 7 6 5 7 9 8 7 6 7 10 8 9 10 10 10 12
23 22 22 23 24 22 21 21 20 20 20 19 18 17 16 15 14 14 15 14 14 14 13 13 12 10 8 6 6 5 5 4 4 3 3 3 3 1 2 3 5 5 4 3 3 3 4 4 4 6 8 9 6 3 4 9 7 9 10 10 11 12
23 22 21 22 24 22 21 21 20 20 20 18 17 17 16 14 14 15 14 13 13 14 13 13 13 11 10 8 6 6 6 6 6 5 5 4 3 2 2 2 4 4 2 2 4 5 5 5 7 7 6 7 5 2 6 10 7 8 9 9 11 12
22 22 20 20 23 22 21 20 20 20 20 19 19 18 17 16 14 14 13 13 14 15 15 13 13 12 10 8 8 7 8 8 6 6 5 4 4 3 3 2 3 3 2 4 6 8 9 5 8 9 7 8 6 2 9 12 8 8 7 8 11 12
23 22 21 20 23 23 20 20 21 22 20 20 20 19 18 16 15 14 12 13 14 13 12 12 12 11 10 9 10 9 9 9 7 6 6 6 5 5 6 3 3 4 3 4 5 7 8 2 6 9 8 10 9 5 9 12 10 8 6 9 12 13
23 23 22 21 23 23 21 20 22 22 21 20 20 19 17 15 15 13 10 11 12 11 10 11 11 11 11 10 11 11 10 10 8 6 6 7 5 4 6 5 4 4 5 5 4 6 8 6 4 5 4 7 8 8 11 11 9 8 8 10 12 13
24 24 24 22 22 23 20 21 23 21 21 21 19 17 15 14 14 13 10 10 11 11 11 12 12 12 12 11 12 11 10 10 9 7 5 7 5 2 3 5 4 4 5 3 3 6 9 11 10 7 3 1 4 9 11 9 9 9 10 10 11 13
26 25 23 23 23 23 21 22 22 20 20 19 18 16 14 13 14 12 11 11 11 12 12 12 12 13 11 11 11 10 9 9 9 8 5 5 4 2 2 4 3 4 3 1 3 6 9 15 18 8 4 4 6 10 10 10 10 10 9 10 12 13
25 24 23 24 24 23 22 21 19 19 19 18 18 16 13 13 14 13 12 13 11 10 11 11 12 12 10 10 9 8 7 7 7 6 5 4 3 2 2 3 2 3 3 2 2 5 9 14 20 13 7 8 9 10 11 11 11 9 9 10 12 12
24 23 23 23 22 22 20 19 18 18 19 19 18 16 14 13 14 12 12 12 10 9 11 11 12 12 11 10 8 8 7 5 5 4 4 4 2 2 4 4 2 2 2 1 1 5 8 11 18 15 9 6 8 9 11 13 11 9 9 10 11 11
25 24 22 21 21 20 19 18 18 19 20 20 18 16 14 13 12 10 10 10 9 10 11 12 13 13 12 11 9 9 9 6 6 5 4 4 3 3 4 4 3 2 1 1 1 5 7 10 15 16 11 6 7 8 10 13 12 11 10 11 11 11
26 25 23 22 21 20 20 19 19 20 21 18 16 14 12 11 11 10 10 9 9 10 11 12 13 12 11 12 10 10 9 8 7 7 6 5 5 5 5 5 5 3 2 3 3 4 6 10 15 17 14 11 10 9 9 11 13 14 13 13 13 12
25 25 25 23 21 20 20 20 19 19 19 16 13 11 10 11 11 10 10 8 8 10 10 11 10 9 9 11 11 9 8 7 8 9 7 6 6 5 6 6 5 4 2 2 3 4 5 9 16 18 15 13 13 12 12 12 15 16 15 14 14 13
25 25 26 24 21 19 18 19 20 18 16 14 12 12 11 11 11 10 10 8 8 9 9 9 8 8 8 9 9 8 7 7 8 10 8 6 6 5 6 6 4 4 3 3 3 4 6 9 14 18 15 14 15 15 16 16 16 17 17 15 13 12
26 26 26 24 21 18 18 18 17 15 14 13 13 13 13 11 10 10 10 8 7 9 8 7 7 7 8 8 9 8 8 8 10 10 8 6 5 6 6 6 5 4 3 3 3 3 4 6 13 17 16 15 15 15 15 16 16 15 16 16 13 10
25 24 24 24 22 20 20 18 15 14 14 14 14 14 14 12 11 11 10 8 7 8 7 6 6 7 8 8 9 9 8 8 11 10 7 6 6 7 7 6 6 4 5 4 3 3 4 6 12 16 15 15 15 14 14 14 13 12 14 15 12 10
24 24 25 24 23 22 22 19 17 17 17 16 16 14 14 14 13 12 10 8 7 6 6 6 6 7 6 6 8 9 8 9 11 11 9 9 8 7 7 6 6 5 6 6 5 5 6 9 14 15 14 14 14 13 13 13 12 11 13 13 12 12
24 24 26 25 24 23 23 22 21 21 19 17 15 15 16 15 14 12 10 9 7 5 4 5 5 6 5 6 7 7 7 8 9 9 8 8 7 6 6 7 6 6 7 8 9 7 8 12 15 13 11 12 13 12 11 12 14 12 11 11 11 12
26 25 25 23 22 22 22 22 21 21 19 17 16 17 18 17 14 12 11 10 7 4 4 4 3 4 5 5 5 6 7 6 7 7 6 6 6 5 6 7 7 8 8 10 10 8 8 9 10 11 9 10 11 12 13 12 11 7 8 9 10 11
27 26 25 23 22 22 21 18 18 19 18 18 17 17 16 15 13 12 11 10 8 5 4 4 4 3 4 4 4 6 7 7 8 8 7 7 7 6 8 8 7 9 10 11 10 8 8 6 8 11 8 5 5 7 10 12 10 5 6 7 9 10
26 26 26 24 24 23 19 16 18 19 17 18 17 15 13 11 11 12 11 10 8 6 5 4 5 6 4 3 4 5 7 8 9 9 9 8 8 8 9 9 9 9 10 12 11 9 8 7 8 11 6 2 3 4 4 7 10 4 5 6 7 9
24 24 24 23 23 21 20 20 22 22 20 20 18 16 14 12 13 13 12 11 10 9 6 5 5 6 6 5 4 4 6 8 9 9 9 8 8 8 8 9 10 9 9 10 10 11 9 7 8 7 4 4 3 2 2 9 10 3 2 4 5 9
22 22 22 21 20 21 22 24 25 24 23 22 19 17 16 15 14 14 13 11 11 10 9 9 9 8 7 5 4 4 4 6 7 7 7 7 7 7 8 9 10 9 8 8 9 12 12 10 8 5 4 4 1 2 8 12 8 1 2 4 5 9
24 23 22 20 20 22 23 23 22 22 22 20 19 16 14 14 15 15 14 12 12 10 9 9 9 8 6 4 4 3 3 4 5 6 6 6 6 6 7 9 10 10 9 8 9 12 14 13 11 6 4 3 2 6 13 13 8 5 4 3 5 9
29 26 24 24 24 23 23 22 20 21 19 16 16 15 13 14 15 15 14 12 11 9 8 8 6 6 7 6 5 4 3 2 2 6 5 3 5 6 6 7 9 10 9 8 9 10 14 15 12 8 7 6 7 10 13 13 14 13 7 3 4 6
31 30 28 28 27 25 23 22 21 21 19 16 16 16 15 15 15 13 11 11 11 10 10 8 7 7 8 7 6 5 5 5 2 7 7 3 4 5 6 7 8 9 8 7 8 8 11 15 13 11 10 10 11 12 13 14 17 17 11 7 5 4
34 33 32 31 30 27 25 24 23 23 21 20 19 17 15 14 13 11 10 11 11 10 10 9 7 8 8 7 7 6 6 7 7 9 8 6 6 5 7 8 8 10 8 7 8 9 11 15 13 13 14 14 14 14 12 11 14 16 11 8 7 6
34 35 35 34 32 29 27 26 25 25 24 22 20 17 15 14 13 11 11 11 10 8 9 9 7 7 7 7 7 7 7 9 11 10 8 6 5 5 8 10 9 10 10 8 10 11 12 14 13 15 16 15 17 16 13 11 14 17 13 10 8 6
26 31 35 34 32 30 28 27 26 26 26 23 21 18 17 16 14 12 11 11 10 10 10 9 7 7 7 6 6 8 8 9 11 10 8 7 6 6 8 10 10 10 11 10 11 12 13 13 13 15 15 15 16 16 15 15 17 18 17 17 14 8
22 27 32 32 31 30 28 27 26 27 26 24 22 20 18 17 15 13 12 12 13 12 12 11 10 8 7 6 6 7 8 9 10 10 9 8 8 8 8 9 10 11 13 13 12 12 13 13 12 12 13 14 16 16 15 17 18 19 20 22 19 12
21 23 29 30 30 29 28 27 26 26 25 24 23 20 18 17 16 14 13 13 13 13 13 13 12 10 8 7 8 8 8 9 9 10 10 8 9 10 10 10 10 11 14 15 14 13 14 14 12 12 13 14 15 16 17 18 20 21 20 21 21 17
23 22 25 26 26 27 26 24 24 24 24 23 22 20 18 17 17 15 13 12 13 14 15 16 14 12 9 9 11 11 9 8 10 11 11 10 12 13 11 11 12 14 15 16 14 14 14 14 13 12 12 14 15 16 17 19 21 20 19 20 22 22
24 23 24 23 23 23 22 21 21 22 22 21 20 20 19 17 17 15 12 12 15 17 18 16 14 13 11 10 12 11 9 10 10 9 10 12 14 13 12 14 15 15 16 15 14 13 12 12 12 11 10 12 14 15 16 16 17 17 17 19 19 22
24 23 23 21 20 20 18 18 19 19 19 20 20 20 20 18 17 15 13 14 17 18 17 15 13 13 12 11 12 11 11 11 9 9 11 12 12 12 12 14 15 15 15 15 15 15 13 14 16 16 15 14 14 15 13 12 13 14 14 15 16 20